Location: Home
(42.5358°N, 72.7383°W)
Time: 18:51:43
(UTC-05:00)

Explorer 7 - Pass Details

Date: 30 November 2021
Orbit: 483 x 674 km, 50.3° (Epoch: 23 January)

Event Time Altitude Azimuth Distance (km) Brightness Sun altitude
Rises 11:28:14 0° 301° (WNW) 2,613 10.0 25.7°
Reaches altitude 10° 11:30:33 10° 308° (NW) 1,704 9.0 25.7°
Maximum altitude 11:34:13 43° 21° (NNE) 699 7.2 25.7°
Drops below altitude 10° 11:37:48 10° 95° (E) 1,661 9.4 25.7°
Sets 11:40:01 0° 102° (ESE) 2,538 10.4 25.7°
